COSMOS 1408 (13552 NORAD) Tracking and Keplerian Element Data

This shows tracking and keplerian element data for the satellite.

Feedback or suggestion? Click here.




ElementValue
Catalog13552
NameCOSMOS 1408
Epoch Orbit12110
Epoch Day12.56956617
Epoch Year2024
RAAN45.6902
Inclination82.5624
Eccentricity0.0017902
Argument of Perigee187.7534
Mean Anonmoly172.3444
Mean Motion15.51527867
Decay Rate0.00027997
L11 13552U 82092A 24012.56956617 .00027997 00000+0 46877-3 0 9999
L22 13552 82.5624 45.6902 0017902 187.7534 172.3444 15.51527867121102



Live tracking and technical data element details for COSMOS 1408 (NORAD 13552). COSMOS 1408 can be tracked NOW for your location showing map with azimuth and elevation plus other details from your city location.







IsCatalogInMostPopularTable: catalog: 13552, numindb: 252
Update: records affected: 1



GetName: 13552 COSMOS 1408

Hit Count: updated at: Fri, 19 Apr 2024 12:26:33 GMT